This demonstration page uses our WeatherBlox Daily Observations layout. Learn more.

Left ArrowRight Arrow

40.92945, -100.16068

Hourly Observations for February 20, 2015

Temp ( °F °C ) Dew Point ( °F °C ) Humidity (%) Winds ( mph kmh ) Pressure ( in mb ) Visibility ( mi km ) Precip ( " mm )
12:15 am 00:15 Partly Cloudy 20 -6.8 13 -10.7 74 74 Calm 30.12 1020 10 16 N/A
12:35 am 00:35 Mostly Cloudy 20 -6.5 14 -10.1 76 76 Calm 30.09 1019 10 16 N/A
12:55 am 00:55 Partly Cloudy 19 -7 14 -10.1 79 79 SSW 3 6 30.09 1019 10 16 N/A
1:15 am 01:15 Clear 20 -6.8 14 -10.1 78 78 Calm 30.09 1019 10 16 N/A
1:35 am 01:35 Mostly Cloudy 22 -5.8 16 -9.1 78 78 Calm 30.09 1019 10 16 N/A
1:55 am 01:55 Cloudy 22 -5.5 16 -9 77 77 Calm 30.06 1018 10 16 N/A
2:15 am 02:15 Cloudy 23 -5.2 16 -8.7 77 77 Calm 30.06 1018 10 16 N/A
2:35 am 02:35 Cloudy 23 -4.8 17 -8.4 76 76 Calm 30.06 1018 10 16 N/A
2:55 am 02:55 Partly Cloudy 23 -5.2 17 -8.5 78 78 Calm 30.06 1018 10 16 N/A
3:15 am 03:15 Mostly Cloudy 23 -4.8 18 -8 79 79 NNW 5 7 30.06 1018 10 16 N/A
3:35 am 03:35 Cloudy 24 -4.3 18 -8 76 76 NNW 5 7 30.06 1018 10 16 N/A
3:55 am 03:55 Cloudy 25 -3.7 17 -8.3 71 71 Calm 30.03 1017 10 16 N/A
4:15 am 04:15 Cloudy 26 -3.5 18 -7.9 72 72 W 3 6 30.00 1016 10 16 N/A
4:35 am 04:35 Cloudy 26 -3.5 17 -8.1 71 71 W 3 6 29.97 1015 10 16 N/A
4:55 am 04:55 Mostly Cloudy 26 -3.3 17 -8.5 68 68 Calm 30.00 1016 10 16 N/A
5:15 am 05:15 Partly Cloudy 26 -3.3 17 -8.3 69 69 WNW 3 6 29.97 1015 10 16 N/A
5:35 am 05:35 Partly Cloudy 26 -3.3 17 -8.1 70 70 W 3 6 29.97 1015 10 16 N/A
5:55 am 05:55 Clear 26 -3.3 17 -8.1 70 70 WNW 3 6 29.97 1015 10 16 N/A
6:15 am 06:15 Clear 26 -3.3 18 -7.6 72 72 Calm 29.97 1015 10 16 N/A
6:35 am 06:35 Clear 26 -3.3 19 -7.5 73 73 Calm 29.97 1015 10 16 N/A
6:55 am 06:55 Clear 26 -3.3 19 -7.5 73 73 Calm 29.94 1014 10 16 N/A
7:15 am 07:15 Partly Cloudy 26 -3.3 19 -7.2 75 75 Calm 29.94 1014 10 16 N/A
7:35 am 07:35 Partly Cloudy 26 -3.3 19 -7.1 75 75 Calm 29.94 1014 10 16 N/A
7:55 am 07:55 Sunny 26 -3.1 19 -7 75 75 Calm 29.94 1014 10 16 N/A
8:15 am 08:15 Partly Cloudy 27 -2.6 19 -7.2 71 71 WNW 3 6 29.94 1014 10 16 N/A
8:35 am 08:35 Mostly Cloudy 28 -2 19 -7.3 67 67 W 3 6 29.94 1014 10 16 N/A
8:55 am 08:55 Partly Cloudy 29 -1.6 19 -7.5 64 64 WNW 3 6 29.94 1014 10 16 N/A
9:15 am 09:15 Mostly Cloudy 30 -1.1 19 -7 65 65 WNW 3 6 29.91 1013 10 16 N/A
9:35 am 09:35 Partly Cloudy 31 -0.4 20 -6.7 63 63 NW 5 7 29.91 1013 10 16 N/A
9:55 am 09:55 Mostly Cloudy 32 0.1 21 -6.2 63 63 Calm 29.91 1013 10 16 N/A
10:15 am 10:15 Partly Cloudy 33 0.7 21 -6 61 61 Calm 29.91 1013 10 16 N/A
10:35 am 10:35 Partly Cloudy 35 1.5 22 -5.6 60 60 Calm 29.88 1012 10 16 N/A
10:55 am 10:55 Partly Cloudy 36 2.1 22 -5.5 58 58 Calm 29.88 1012 10 16 N/A
11:15 am 11:15 Mostly Cloudy 37 2.8 22 -5.3 56 56 Calm 29.88 1012 10 16 N/A
11:35 am 11:35 Mostly Cloudy 38 3.2 22 -5.3 54 54 Calm 29.88 1012 10 16 N/A
11:55 am 11:55 Partly Cloudy 39 4.1 23 -4.9 52 52 S 3 6 29.88 1012 10 16 N/A
12:15 pm 12:15 Sunny 41 5.1 24 -4.5 50 50 SE 6 9 29.83 1010 10 16 N/A
12:35 pm 12:35 Sunny 44 6.5 25 -3.8 48 48 ESE 3 6 29.83 1010 10 16 N/A
12:55 pm 12:55 Sunny 46 7.5 26 -3.5 46 46 E 5 7 29.77 1008 10 16 N/A
1:15 pm 13:15 Sunny 48 8.7 26 -3.4 43 43 E 6 9 29.77 1008 10 16 N/A
1:35 pm 13:35 Sunny 49 9.5 26 -3.5 40 40 ENE 8 13 29.77 1008 10 16 N/A
1:55 pm 13:55 Sunny 52 11 25 -3.8 36 36 ENE 10 17 29.74 1007 10 16 N/A
2:15 pm 14:15 Sunny 53 11.6 25 -3.8 34 34 NE 12 19 29.74 1007 10 16 N/A
2:35 pm 14:35 Sunny 54 12.1 23 -4.9 30 30 NNE 14 22 29.74 1007 10 16 N/A
2:55 pm 14:55 Sunny 52 11.3 24 -4.5 33 33 NE 14 22 29.74 1007 10 16 N/A
3:15 pm 15:15 Sunny 52 11 24 -4.5 34 34 NE 12 19 29.74 1007 10 16 N/A
3:35 pm 15:35 Sunny 52 10.9 24 -4.5 34 34 NE 14 22 29.74 1007 10 16 N/A
3:55 pm 15:55 Mostly Cloudy 51 10.4 26 -3.5 38 38 NE 16 26 29.77 1008 10 16 N/A
4:15 pm 16:15 Cloudy 50 9.8 28 -2.5 42 42 NE 15 24 29.77 1008 10 16 N/A
4:35 pm 16:35 Partly Cloudy 49 9.6 29 -1.9 45 45 NE 16 26 29.77 1008 10 16 N/A
4:55 pm 16:55 Partly Cloudy 48 9 28 -2.3 45 45 NE 15 24 29.77 1008 10 16 N/A
5:15 pm 17:15 Partly Cloudy 47 8.5 28 -2.3 47 47 NE 13 20 29.77 1008 10 16 N/A
5:35 pm 17:35 Partly Cloudy 46 7.7 28 -2.3 50 50 NE 8 13 29.80 1009 10 16 N/A
5:55 pm 17:55 Partly Cloudy 45 7 28 -2.3 52 52 NE 7 11 29.83 1010 10 16 N/A
6:15 pm 18:15 Mostly Cloudy 43 6.1 28 -2.5 54 54 NNE 5 7 29.85 1011 10 16 N/A
6:35 pm 18:35 Cloudy 40 4.5 27 -3 59 59 N 7 11 29.88 1012 10 16 N/A
6:55 pm 18:55 Cloudy 41 5 28 -2.5 59 59 N 7 11 29.88 1012 10 16 N/A
7:15 pm 19:15 Cloudy 41 5.2 28 -2.5 58 58 NNE 6 9 29.88 1012 10 16 N/A
7:35 pm 19:35 Cloudy 42 5.3 28 -2.5 58 58 NNE 6 9 29.91 1013 10 16 N/A
7:55 pm 19:55 Cloudy 40 4.4 27 -2.6 61 61 Calm 29.91 1013 10 16 N/A
8:15 pm 20:15 Partly Cloudy 39 4 28 -2.4 63 63 N 3 6 29.91 1013 10 16 N/A
8:35 pm 20:35 Mostly Cloudy 37 3 27 -2.6 67 67 WNW 6 9 29.91 1013 10 16 N/A
8:55 pm 20:55 Cloudy 37 2.5 28 -2.3 71 71 WNW 6 9 29.88 1012 10 16 N/A
9:15 pm 21:15 Cloudy 35 1.7 27 -2.9 72 72 W 7 11 29.94 1014 10 16 N/A
9:35 pm 21:35 Cloudy 35 1.7 27 -2.6 73 73 W 8 13 29.94 1014 10 16 N/A
9:55 pm 21:55 Cloudy 38 3.2 29 -1.5 72 72 WSW 8 13 29.91 1013 10 16 N/A
10:15 pm 22:15 Cloudy 38 3.5 29 -1.5 70 70 WSW 8 13 29.91 1013 10 16 N/A
10:35 pm 22:35 Cloudy 38 3.1 29 -1.5 72 72 NNW 8 13 29.94 1014 10 16 N/A
10:55 pm 22:55 Mostly Cloudy 36 2.3 30 -1.3 77 77 NW 10 17 29.97 1015 10 16 N/A
11:15 pm 23:15 Cloudy 37 2.6 30 -1.1 77 77 NW 10 17 29.97 1015 10 16 N/A
11:35 pm 23:35 Cloudy 38 3.2 31 -0.7 76 76 NW 10 17 29.97 1015 10 16 N/A
11:55 pm 23:55 Cloudy 38 3.2 31 -0.5 77 77 NW 8 13 29.97 1015 10 16 N/A

Powered by AerisWeather